Time,TemperatureF,DewpointF,PressureIn,WindDirection,WindDirectionDegrees,WindSpeedMPH,WindSpeedGustMPH,Humidity,HourlyPrecipIn,Conditions,Clouds,dailyrainin,SoftwareType,DateUTC
2013-04-08 00:05:00,52.6,51.0,29.45,NW,309,0.0,0.0,93,0.01,,,0.00,weatherlink.com 1.10,2013-04-08 05:05:00,
2013-04-08 00:20:00,52.5,51.0,29.45,NW,309,0.0,0.0,94,0.02,,,0.01,weatherlink.com 1.10,2013-04-08 05:20:00,
2013-04-08 00:35:00,52.6,51.0,29.46,NW,308,0.0,1.0,94,0.01,,,0.01,weatherlink.com 1.10,2013-04-08 05:35:00,
2013-04-08 00:50:00,52.7,51.0,29.46,West,271,1.0,3.0,94,0.01,,,0.01,weatherlink.com 1.10,2013-04-08 05:50:00,
2013-04-08 01:05:00,52.8,52.0,29.41,SW,215,4.0,14.0,95,0.01,,,0.01,weatherlink.com 1.10,2013-04-08 06:05:00,
2013-04-08 01:20:00,53.2,52.0,29.39,SE,142,9.0,17.0,95,0.00,,,0.01,weatherlink.com 1.10,2013-04-08 06:20:00,
2013-04-08 01:35:00,53.2,52.0,29.43,SE,135,0.0,5.0,94,0.01,,,0.02,weatherlink.com 1.10,2013-04-08 06:35:00,
2013-04-08 01:50:00,52.9,51.0,29.44,SW,215,0.0,8.0,94,0.01,,,0.02,weatherlink.com 1.10,2013-04-08 06:50:00,
2013-04-08 02:05:00,52.3,51.0,29.44,SW,222,0.0,9.0,94,0.01,,,0.02,weatherlink.com 1.10,2013-04-08 07:05:00,
2013-04-08 02:20:00,52.0,50.0,29.45,SW,232,1.0,6.0,94,0.01,,,0.02,weatherlink.com 1.10,2013-04-08 07:20:00,
2013-04-08 02:35:00,52.0,50.0,29.45,SSW,202,0.0,7.0,93,0.00,,,0.02,weatherlink.com 1.10,2013-04-08 07:35:00,
2013-04-08 02:50:00,51.9,50.0,29.45,SW,227,3.0,8.0,94,0.00,,,0.02,weatherlink.com 1.10,2013-04-08 07:50:00,
2013-04-08 03:05:00,51.7,50.0,29.44,SW,223,2.0,8.0,94,0.00,,,0.02,weatherlink.com 1.10,2013-04-08 08:05:00,
2013-04-08 03:21:00,51.5,50.0,29.44,SSW,206,0.0,6.0,94,0.00,,,0.02,weatherlink.com 1.10,2013-04-08 08:21:00,
2013-04-08 03:36:00,51.2,50.0,29.43,SSW,204,2.0,5.0,94,0.00,,,0.02,weatherlink.com 1.10,2013-04-08 08:36:00,
2013-04-08 03:51:00,50.8,49.0,29.42,SSW,208,0.0,3.0,93,0.01,,,0.03,weatherlink.com 1.10,2013-04-08 08:51:00,
2013-04-08 04:06:00,50.4,49.0,29.42,SSW,208,0.0,2.0,94,0.01,,,0.03,weatherlink.com 1.10,2013-04-08 09:06:00,
2013-04-08 04:21:00,49.8,48.0,29.42,SSW,209,2.0,2.0,94,0.01,,,0.03,weatherlink.com 1.10,2013-04-08 09:21:00,
2013-04-08 04:36:00,49.7,48.0,29.42,SW,222,1.0,3.0,94,0.01,,,0.03,weatherlink.com 1.10,2013-04-08 09:36:00,
2013-04-08 04:51:00,49.4,48.0,29.42,SW,222,0.0,3.0,94,0.00,,,0.03,weatherlink.com 1.10,2013-04-08 09:51:00,
2013-04-08 05:06:00,49.0,47.0,29.42,WSW,257,0.0,5.0,94,0.00,,,0.03,weatherlink.com 1.10,2013-04-08 10:06:00,
2013-04-08 05:36:00,48.4,47.0,29.43,WSW,256,0.0,0.0,95,0.00,,,0.03,weatherlink.com 1.10,2013-04-08 10:36:00,
2013-04-08 06:21:00,47.4,46.0,29.44,WSW,256,0.0,1.0,95,0.00,,,0.03,weatherlink.com 1.10,2013-04-08 11:21:00,
2013-04-08 06:36:00,47.4,46.0,29.44,WSW,252,0.0,2.0,96,0.00,,,0.03,weatherlink.com 1.10,2013-04-08 11:36:00,
2013-04-08 06:51:00,47.3,46.0,29.44,WSW,252,0.0,0.0,95,0.00,,,0.03,weatherlink.com 1.10,2013-04-08 11:51:00,
2013-04-08 07:21:00,47.3,46.0,29.45,WSW,252,0.0,0.0,96,0.00,,,0.03,weatherlink.com 1.10,2013-04-08 12:21:00,
2013-04-08 07:36:00,47.9,47.0,29.45,West,272,1.0,2.0,97,0.00,,,0.03,weatherlink.com 1.10,2013-04-08 12:36:00,
2013-04-08 08:06:00,49.7,49.0,29.45,WSW,257,0.0,2.0,97,0.01,,,0.04,weatherlink.com 1.10,2013-04-08 13:06:00,
2013-04-08 08:21:00,50.8,50.0,29.46,WNW,295,0.0,5.0,98,0.01,,,0.04,weatherlink.com 1.10,2013-04-08 13:21:00,
2013-04-08 08:36:00,51.5,51.0,29.46,WNW,293,0.0,5.0,98,0.01,,,0.04,weatherlink.com 1.10,2013-04-08 13:36:00,
2013-04-08 08:51:00,51.8,51.0,29.46,West,267,0.0,7.0,98,0.01,,,0.04,weatherlink.com 1.10,2013-04-08 13:51:00,
2013-04-08 09:06:00,51.8,51.0,29.47,WNW,299,1.0,7.0,98,0.00,,,0.04,weatherlink.com 1.10,2013-04-08 14:06:00,
2013-04-08 09:21:00,52.0,52.0,29.46,WSW,253,0.0,6.0,98,0.00,,,0.04,weatherlink.com 1.10,2013-04-08 14:21:00,
2013-04-08 09:36:00,52.4,52.0,29.47,SW,228,0.0,3.0,98,0.00,,,0.04,weatherlink.com 1.10,2013-04-08 14:36:00,
2013-04-08 09:51:00,52.7,52.0,29.47,SW,228,2.0,3.0,98,0.00,,,0.04,weatherlink.com 1.10,2013-04-08 14:51:00,
2013-04-08 10:21:00,53.5,53.0,29.48,SW,228,0.0,4.0,98,0.00,,,0.04,weatherlink.com 1.10,2013-04-08 15:21:00,
2013-04-08 10:51:00,54.7,54.0,29.48,South,190,0.0,3.0,98,0.01,,,0.05,weatherlink.com 1.10,2013-04-08 15:51:00,
2013-04-08 11:06:00,55.0,55.0,29.49,South,190,0.0,3.0,98,0.01,,,0.05,weatherlink.com 1.10,2013-04-08 16:06:00,
2013-04-08 11:36:00,55.9,55.0,29.50,South,190,0.0,1.0,98,0.00,,,0.05,weatherlink.com 1.10,2013-04-08 16:36:00,
2013-04-08 11:51:00,56.4,56.0,29.50,South,169,0.0,1.0,97,0.00,,,0.05,weatherlink.com 1.10,2013-04-08 16:51:00,
2013-04-08 12:06:00,56.8,55.0,29.50,South,169,0.0,1.0,95,0.00,,,0.05,weatherlink.com 1.10,2013-04-08 17:06:00,
2013-04-08 12:21:00,57.5,56.0,29.51,South,169,0.0,1.0,94,0.00,,,0.05,weatherlink.com 1.10,2013-04-08 17:21:00,
2013-04-08 12:37:00,57.8,56.0,29.50,South,169,0.0,2.0,93,0.00,,,0.05,weatherlink.com 1.10,2013-04-08 17:37:00,
2013-04-08 12:51:00,58.5,56.0,29.50,South,183,0.0,4.0,91,0.00,,,0.05,weatherlink.com 1.10,2013-04-08 17:51:00,
2013-04-08 13:07:00,58.7,56.0,29.50,SSE,167,0.0,5.0,90,0.00,,,0.05,weatherlink.com 1.10,2013-04-08 18:07:00,
2013-04-08 13:22:00,59.2,57.0,29.50,SSE,161,0.0,4.0,91,0.00,,,0.05,weatherlink.com 1.10,2013-04-08 18:22:00,
2013-04-08 13:37:00,60.4,57.0,29.49,South,174,2.0,6.0,87,0.00,,,0.05,weatherlink.com 1.10,2013-04-08 18:37:00,
2013-04-08 13:52:00,61.1,57.0,29.49,South,176,0.0,6.0,86,0.00,,,0.05,weatherlink.com 1.10,2013-04-08 18:52:00,
2013-04-08 14:07:00,62.1,57.0,29.50,SW,226,4.0,7.0,84,0.00,,,0.05,weatherlink.com 1.10,2013-04-08 19:07:00,
2013-04-08 14:22:00,62.0,57.0,29.49,SW,226,4.0,7.0,84,0.00,,,0.05,weatherlink.com 1.10,2013-04-08 19:22:00,
2013-04-08 14:37:00,62.5,58.0,29.49,SSE,147,3.0,6.0,84,0.00,,,0.05,weatherlink.com 1.10,2013-04-08 19:37:00,
2013-04-08 14:52:00,63.0,57.0,29.48,SSW,210,2.0,9.0,80,0.01,,,0.06,weatherlink.com 1.10,2013-04-08 19:52:00,
2013-04-08 15:07:00,64.0,58.0,29.48,SW,225,2.0,8.0,80,0.01,,,0.06,weatherlink.com 1.10,2013-04-08 20:07:00,
2013-04-08 15:22:00,64.7,58.0,29.48,SSE,161,0.0,6.0,80,0.01,,,0.06,weatherlink.com 1.10,2013-04-08 20:22:00,
2013-04-08 15:37:00,65.7,58.0,29.48,SSW,211,2.0,7.0,77,0.01,,,0.06,weatherlink.com 1.10,2013-04-08 20:37:00,
2013-04-08 15:52:00,65.3,58.0,29.48,SE,134,8.0,9.0,77,0.00,,,0.06,weatherlink.com 1.10,2013-04-08 20:52:00,
2013-04-08 16:07:00,65.0,58.0,29.48,SW,216,4.0,9.0,78,0.00,,,0.06,weatherlink.com 1.10,2013-04-08 21:07:00,
2013-04-08 16:22:00,64.8,58.0,29.48,SSW,198,4.0,12.0,79,0.00,,,0.06,weatherlink.com 1.10,2013-04-08 21:22:00,
2013-04-08 16:37:00,65.1,58.0,29.48,SSW,192,5.0,9.0,79,0.00,,,0.06,weatherlink.com 1.10,2013-04-08 21:37:00,
2013-04-08 16:52:00,65.2,59.0,29.48,SW,219,0.0,7.0,79,0.00,,,0.06,weatherlink.com 1.10,2013-04-08 21:52:00,
2013-04-08 17:07:00,66.1,59.0,29.47,SE,138,3.0,5.0,78,0.00,,,0.06,weatherlink.com 1.10,2013-04-08 22:07:00,
2013-04-08 17:22:00,67.2,59.0,29.46,SSE,148,0.0,5.0,76,0.00,,,0.06,weatherlink.com 1.10,2013-04-08 22:22:00,
2013-04-08 17:37:00,68.2,60.0,29.47,SSE,150,2.0,4.0,74,0.00,,,0.06,weatherlink.com 1.10,2013-04-08 22:37:00,
2013-04-08 17:52:00,67.8,59.0,29.47,WSW,239,1.0,6.0,74,0.00,,,0.06,weatherlink.com 1.10,2013-04-08 22:52:00,
2013-04-08 18:07:00,67.3,59.0,29.47,SE,130,4.0,5.0,75,0.00,,,0.06,weatherlink.com 1.10,2013-04-08 23:07:00,
2013-04-08 18:22:00,67.0,59.0,29.47,SE,142,0.0,3.0,76,0.00,,,0.06,weatherlink.com 1.10,2013-04-08 23:22:00,
2013-04-08 18:37:00,66.6,59.0,29.48,SE,138,2.0,5.0,77,0.00,,,0.06,weatherlink.com 1.10,2013-04-08 23:37:00,
2013-04-08 18:52:00,66.3,59.0,29.48,SSE,163,0.0,4.0,78,0.00,,,0.06,weatherlink.com 1.10,2013-04-08 23:52:00,
2013-04-08 19:07:00,66.0,59.0,29.49,ESE,105,0.0,4.0,78,0.00,,,0.06,weatherlink.com 1.10,2013-04-09 00:07:00,
2013-04-08 19:22:00,65.7,59.0,29.49,SSE,159,0.0,3.0,79,0.00,,,0.06,weatherlink.com 1.10,2013-04-09 00:22:00,
2013-04-08 19:37:00,65.1,59.0,29.49,SSE,159,0.0,1.0,80,0.00,,,0.06,weatherlink.com 1.10,2013-04-09 00:37:00,
2013-04-08 19:52:00,64.7,59.0,29.49,East,88,0.0,2.0,81,0.00,,,0.06,weatherlink.com 1.10,2013-04-09 00:52:00,
2013-04-08 20:07:00,64.2,59.0,29.50,East,88,0.0,1.0,83,0.00,,,0.06,weatherlink.com 1.10,2013-04-09 01:07:00,
2013-04-08 20:22:00,64.0,59.0,29.49,SSW,197,0.0,1.0,84,0.01,,,0.07,weatherlink.com 1.10,2013-04-09 01:22:00,
2013-04-08 20:37:00,63.9,59.0,29.49,SSE,155,0.0,1.0,84,0.01,,,0.07,weatherlink.com 1.10,2013-04-09 01:37:00,
2013-04-08 20:52:00,64.0,60.0,29.49,South,171,0.0,4.0,85,0.01,,,0.07,weatherlink.com 1.10,2013-04-09 01:52:00,
2013-04-08 21:07:00,64.1,60.0,29.50,ESE,112,0.0,4.0,86,0.01,,,0.07,weatherlink.com 1.10,2013-04-09 02:07:00,
2013-04-08 21:22:00,64.1,60.0,29.50,South,175,0.0,6.0,86,0.00,,,0.07,weatherlink.com 1.10,2013-04-09 02:22:00,
2013-04-08 21:37:00,64.1,60.0,29.50,SSE,165,0.0,3.0,86,0.00,,,0.07,weatherlink.com 1.10,2013-04-09 02:37:00,
2013-04-08 21:52:00,64.0,60.0,29.50,South,176,0.0,3.0,86,0.00,,,0.07,weatherlink.com 1.10,2013-04-09 02:52:00,
2013-04-08 22:07:00,64.0,60.0,29.51,South,173,0.0,6.0,86,0.00,,,0.07,weatherlink.com 1.10,2013-04-09 03:07:00,
2013-04-08 22:22:00,64.0,60.0,29.50,SE,138,0.0,4.0,86,0.00,,,0.07,weatherlink.com 1.10,2013-04-09 03:22:00,
2013-04-08 22:37:00,64.1,61.0,29.49,SE,136,1.0,7.0,88,0.00,,,0.07,weatherlink.com 1.10,2013-04-09 03:37:00,
2013-04-08 22:52:00,63.0,60.0,29.47,South,169,0.0,6.0,90,0.00,,,0.07,weatherlink.com 1.10,2013-04-09 03:52:00,
2013-04-08 23:07:00,62.6,60.0,29.46,SE,134,4.0,12.0,91,0.00,,,0.07,weatherlink.com 1.10,2013-04-09 04:07:00,
2013-04-08 23:22:00,62.2,60.0,29.47,South,185,2.0,7.0,92,0.00,,,0.07,weatherlink.com 1.10,2013-04-09 04:22:00,
2013-04-08 23:37:00,62.5,61.0,29.46,SSE,156,0.0,9.0,93,0.00,,,0.07,weatherlink.com 1.10,2013-04-09 04:37:00,
2013-04-08 23:52:00,62.6,60.0,29.46,South,175,1.0,11.0,92,0.00,,,0.07,weatherlink.com 1.10,2013-04-09 04:52:00,